QPF
0.00 0.00 0.00 0.00 0.00 0.00 0.00 0.00 0.00 0.00 0.00 0.00 0.00 0.00 0.00 0.00 0.00 0.00 0.00 0.00 0.00 0.00 0.00 0.00 0.00 0.00 0.00 0.00 0.00 0.00 0.00 0.00 0.00 0.00 0.00 0.00 0.00 0.00 0.00 0.00 0.00 0.00 0.00 0.00
0.00 0.00 0.00 0.00 0.00 0.00 0.00 0.00 0.00 0.00 0.00 0.00 0.00 0.00 0.00 0.00 0.00 0.00 0.00 0.00 0.00 0.00 0.00 0.00 0.00 0.00 0.00 0.00 0.00 0.00 0.00 0.00 0.00 0.00 0.00 0.00 0.00 0.00 0.00 0.01 0.01 0.03 0.05 0.05
0.00 0.00 0.00 0.00 0.00 0.00 0.00 0.00 0.00 0.00 0.00 0.00 0.00 0.00 0.00 0.00 0.00 0.00 0.00 0.00 0.00 0.00 0.00 0.00 0.00 0.00 0.00 0.00 0.00 0.00 0.01 0.01 0.01 0.00 0.00 0.00 0.00 0.00 0.00 0.00 0.04 0.09 0.17 0.17
0.00 0.00 0.00 0.00 0.00 0.00 0.00 0.00 0.00 0.00 0.00 0.00 0.00 0.00 0.00 0.00 0.00 0.00 0.00 0.00 0.00 0.00 0.00 0.00 0.00 0.00 0.00 0.00 0.00 0.00 0.00 0.00 0.00 0.00 0.00 0.00 0.01 0.03 0.03 0.06 0.15 0.15 0.02 0.00
0.00 0.00 0.00 0.00 0.00 0.00 0.00 0.00 0.00 0.00 0.00 0.00 0.00 0.00 0.00 0.00 0.00 0.00 0.00 0.00 0.00 0.00 0.00 0.00 0.00 0.00 0.00 0.00 0.00 0.00 0.00 0.00 0.00 0.00 0.00 0.00 0.00 0.00 0.04 0.11 0.10 0.03 0.00 0.00
0.00 0.00 0.00 0.00 0.00 0.00 0.00 0.00 0.00 0.00 0.00 0.00 0.00 0.00 0.00 0.00 0.00 0.00 0.00 0.00 0.00 0.00 0.00 0.00 0.00 0.00 0.00 0.00 0.00 0.00 0.00 0.00 0.02 0.00 0.01 0.01 0.00 0.00 0.06 0.13 0.11 0.02 0.03 0.09
0.00 0.00 0.00 0.00 0.00 0.00 0.00 0.00 0.00 0.00 0.00 0.00 0.00 0.00 0.00 0.00 0.00 0.00 0.00 0.00 0.00 0.00 0.00 0.00 0.00 0.00 0.00 0.00 0.00 0.00 0.00 0.00 0.01 0.01 0.04 0.06 0.07 0.11 0.15 0.15 0.16 0.12 0.10 0.09
0.00 0.00 0.00 0.00 0.00 0.00 0.00 0.00 0.00 0.00 0.00 0.00 0.00 0.00 0.00 0.00 0.00 0.00 0.00 0.00 0.00 0.00 0.00 0.00 0.00 0.00 0.00 0.00 0.00 0.00 0.00 0.01 0.01 0.09 0.17 0.11 0.10 0.18 0.22 0.19 0.11 0.08 0.04 0.02
0.00 0.00 0.00 0.00 0.00 0.00 0.00 0.00 0.00 0.00 0.00 0.00 0.00 0.00 0.00 0.00 0.00 0.00 0.00 0.00 0.00 0.00 0.00 0.00 0.00 0.00 0.00 0.00 0.00 0.01 0.04 0.07 0.21 0.25 0.21 0.14 0.17 0.18 0.13 0.08 0.09 0.09 0.05 0.02
0.00 0.00 0.00 0.00 0.00 0.00 0.00 0.00 0.00 0.00 0.00 0.00 0.00 0.00 0.00 0.00 0.00 0.00 0.00 0.00 0.00 0.00 0.00 0.01 0.00 0.00 0.00 0.01 0.03 0.16 0.16 0.20 0.34 0.32 0.26 0.20 0.14 0.10 0.09 0.09 0.08 0.07 0.04 0.01
0.00 0.00 0.00 0.00 0.00 0.00 0.00 0.00 0.00 0.00 0.00 0.00 0.00 0.00 0.00 0.00 0.00 0.00 0.00 0.00 0.00 0.00 0.00 0.04 0.04 0.10 0.15 0.19 0.40 0.50 0.40 0.34 0.29 0.17 0.13 0.07 0.06 0.05 0.04 0.03 0.03 0.03 0.02 0.00
0.00 0.00 0.00 0.00 0.00 0.00 0.00 0.00 0.00 0.00 0.00 0.00 0.00 0.00 0.00 0.00 0.00 0.00 0.00 0.01 0.05 0.05 0.09 0.12 0.19 0.26 0.30 0.29 0.27 0.20 0.13 0.14 0.11 0.14 0.17 0.11 0.07 0.05 0.03 0.02 0.04 0.02 0.01 0.00
0.00 0.00 0.00 0.00 0.00 0.00 0.00 0.00 0.00 0.00 0.00 0.00 0.00 0.00 0.00 0.00 0.00 0.00 0.00 0.05 0.12 0.11 0.07 0.05 0.03 0.04 0.08 0.12 0.16 0.21 0.16 0.20 0.16 0.15 0.15 0.14 0.10 0.05 0.02 0.02 0.02 0.01 0.01 0.00
0.00 0.00 0.00 0.00 0.00 0.00 0.00 0.00 0.00 0.00 0.00 0.00 0.00 0.00 0.00 0.00 0.00 0.01 0.00 0.00 0.00 0.01 0.00 0.00 0.00 0.03 0.06 0.02 0.01 0.03 0.01 0.01 0.00 0.00 0.00 0.00 0.00 0.00 0.00 0.00 0.00 0.00 0.00 0.00
0.00 0.00 0.00 0.00 0.00 0.00 0.00 0.00 0.00 0.00 0.00 0.00 0.00 0.00 0.00 0.01 0.02 0.00 0.00 0.00 0.00 0.00 0.00 0.00 0.00 0.00 0.01 0.00 0.00 0.00 0.00 0.00 0.00 0.00 0.00 0.00 0.00 0.00 0.00 0.00 0.00 0.00 0.00 0.00
0.00 0.00 0.00 0.00 0.00 0.00 0.00 0.00 0.00 0.00 0.00 0.00 0.00 0.00 0.00 0.02 0.01 0.01 0.00 0.00 0.00 0.00 0.00 0.00 0.00 0.00 0.00 0.00 0.00 0.00 0.00 0.00 0.00 0.00 0.00 0.00 0.00 0.00 0.00 0.00 0.00 0.00 0.00 0.00
0.00 0.00 0.00 0.00 0.00 0.00 0.00 0.00 0.00 0.00 0.00 0.00 0.00 0.00 0.00 0.01 0.01 0.00 0.00 0.00 0.00 0.00 0.01 0.01 0.00 0.00 0.00 0.00 0.00 0.00 0.00 0.00 0.00 0.00 0.00 0.00 0.00 0.00 0.00 0.00 0.00 0.00 0.00 0.00
0.00 0.00 0.00 0.00 0.00 0.00 0.00 0.00 0.00 0.00 0.00 0.00 0.00 0.00 0.00 0.00 0.00 0.00 0.00 0.00 0.01 0.02 0.02 0.00 0.00 0.00 0.00 0.00 0.00 0.00 0.00 0.00 0.00 0.00 0.00 0.00 0.00 0.00 0.00 0.00 0.00 0.00 0.00 0.00
0.00 0.00 0.00 0.00 0.00 0.00 0.00 0.00 0.00 0.00 0.00 0.00 0.00 0.00 0.00 0.00 0.00 0.00 0.00 0.01 0.02 0.01 0.01 0.00 0.00 0.00 0.00 0.00 0.00 0.00 0.00 0.00 0.00 0.00 0.00 0.00 0.00 0.00 0.00 0.00 0.00 0.00 0.00 0.00
0.00 0.00 0.00 0.00 0.00 0.00 0.00 0.00 0.00 0.00 0.00 0.00 0.00 0.00 0.00 0.00 0.00 0.00 0.00 0.01 0.02 0.01 0.00 0.00 0.00 0.00 0.00 0.00 0.00 0.00 0.00 0.00 0.00 0.00 0.00 0.00 0.00 0.00 0.00 0.00 0.00 0.00 0.00 0.00
0.00 0.00 0.00 0.00 0.00 0.00 0.00 0.00 0.00 0.00 0.00 0.00 0.00 0.00 0.00 0.00 0.01 0.00 0.00 0.01 0.00 0.00 0.00 0.00 0.00 0.00 0.00 0.00 0.00 0.00 0.00 0.00 0.00 0.00 0.00 0.00 0.00 0.00 0.00 0.00 0.00 0.00 0.00 0.00
0.00 0.00 0.00 0.00 0.00 0.00 0.00 0.00 0.00 0.00 0.00 0.00 0.00 0.00 0.00 0.00 0.01 0.00 0.00 0.00 0.00 0.00 0.00 0.00 0.00 0.00 0.00 0.00 0.00 0.00 0.00 0.00 0.00 0.00 0.00 0.00 0.00 0.00 0.00 0.00 0.00 0.00 0.00 0.00
0.00 0.00 0.00 0.00 0.00 0.00 0.00 0.00 0.00 0.00 0.00 0.00 0.00 0.00 0.00 0.00 0.00 0.00 0.00 0.00 0.00 0.00 0.00 0.00 0.00 0.00 0.00 0.00 0.00 0.00 0.00 0.00 0.00 0.00 0.00 0.00 0.00 0.00 0.00 0.00 0.00 0.00 0.00 0.00
0.00 0.00 0.00 0.00 0.00 0.00 0.00 0.00 0.00 0.00 0.00 0.00 0.00 0.00 0.00 0.00 0.00 0.00 0.00 0.00 0.00 0.00 0.00 0.00 0.00 0.00 0.00 0.00 0.00 0.00 0.00 0.00 0.00 0.00 0.00 0.00 0.00 0.00 0.00 0.00 0.00 0.00 0.00 0.00
0.00 0.00 0.00 0.00 0.00 0.00 0.00 0.00 0.00 0.00 0.00 0.00 0.00 0.00 0.00 0.00 0.00 0.00 0.00 0.00 0.00 0.00 0.00 0.00 0.00 0.00 0.00 0.00 0.00 0.00 0.00 0.00 0.00 0.00 0.00 0.00 0.00 0.00 0.00 0.00 0.00 0.00 0.00 0.00
0.00 0.00 0.00 0.00 0.00 0.00 0.00 0.00 0.00 0.00 0.00 0.00 0.00 0.00 0.00 0.00 0.00 0.00 0.00 0.00 0.00 0.00 0.00 0.00 0.00 0.00 0.00 0.00 0.00 0.00 0.00 0.00 0.00 0.00 0.00 0.00 0.00 0.00 0.00 0.00 0.00 0.00 0.00 0.00
MSLP
1009.88 1010.14 1010.66 1011.07 1011.11 1011.30 1011.20 1011.40 1011.66 1011.69 1011.62 1012.06 1012.40 1012.83 1013.18 1013.40 1014.00 1014.34 1014.56 1014.64 1014.76 1014.70 1014.44 1014.89 1015.33 1015.83 1016.30 1016.83 1017.34 1017.58 1017.99 1018.07 1018.50 1018.65 1018.79 1018.92 1018.86 1018.84 1018.61 1018.61 1018.60 1018.60 1018.59 1018.70
1010.64 1010.47 1009.83 1010.68 1011.08 1011.03 1011.33 1011.45 1011.88 1012.14 1012.24 1012.59 1013.31 1013.24 1013.21 1013.11 1012.93 1013.11 1013.62 1013.97 1013.99 1014.28 1014.47 1014.60 1014.96 1015.36 1015.82 1016.20 1016.68 1017.29 1017.45 1017.76 1018.13 1018.44 1018.47 1018.42 1018.47 1018.59 1018.73 1018.72 1018.96 1019.28 1019.14 1019.16
1010.15 1009.40 1009.26 1009.94 1010.52 1010.97 1011.29 1011.51 1011.90 1012.68 1012.94 1013.37 1013.64 1013.31 1012.83 1012.59 1012.57 1012.62 1012.70 1012.94 1013.35 1013.42 1013.83 1014.17 1014.62 1014.81 1015.35 1015.89 1016.25 1016.77 1017.24 1017.48 1017.84 1018.18 1018.48 1018.57 1018.68 1018.87 1019.06 1019.23 1019.50 1019.43 1019.65 1019.49
1009.62 1008.66 1008.77 1009.37 1010.10 1010.55 1011.01 1011.18 1012.30 1013.20 1013.89 1014.71 1014.88 1014.49 1012.79 1012.04 1011.67 1011.77 1011.89 1012.22 1012.26 1012.64 1012.89 1013.44 1013.86 1014.38 1014.64 1015.02 1015.60 1016.18 1016.74 1017.14 1017.49 1017.87 1018.20 1018.27 1018.36 1018.71 1018.95 1019.22 1019.64 1019.66 1019.36 1019.40
1008.59 1008.33 1008.48 1009.04 1009.20 1010.04 1010.99 1010.86 1012.32 1013.71 1014.94 1015.63 1015.57 1015.56 1012.50 1012.16 1011.74 1010.72 1010.86 1011.07 1011.34 1011.68 1012.24 1012.67 1013.16 1013.51 1013.91 1014.67 1015.13 1015.65 1016.30 1016.87 1017.25 1017.60 1017.98 1018.22 1018.35 1018.52 1018.82 1019.22 1019.51 1019.75 1019.54 1019.55
1008.72 1008.07 1008.02 1007.90 1008.48 1009.62 1010.98 1012.13 1013.51 1014.80 1015.70 1016.13 1015.15 1015.21 1012.54 1012.14 1010.81 1010.06 1010.26 1010.36 1010.59 1010.94 1011.58 1012.04 1012.72 1013.31 1013.77 1014.39 1014.93 1015.39 1016.01 1016.48 1017.01 1017.38 1017.70 1017.95 1018.17 1018.48 1019.11 1019.35 1019.65 1020.05 1020.35 1020.25
1008.88 1008.29 1007.62 1007.60 1009.02 1010.20 1010.90 1012.41 1014.33 1015.66 1016.48 1016.22 1015.54 1015.30 1012.38 1011.48 1010.87 1010.47 1009.59 1009.70 1009.80 1010.16 1011.09 1011.73 1012.45 1013.10 1013.78 1014.20 1014.75 1015.31 1015.92 1016.43 1016.66 1017.07 1017.41 1017.80 1018.17 1018.54 1019.13 1019.69 1020.10 1020.59 1020.81 1020.96
1009.62 1008.68 1007.74 1007.28 1007.84 1009.47 1010.71 1011.58 1013.03 1014.65 1016.14 1015.89 1015.70 1014.56 1012.07 1011.85 1011.56 1010.79 1009.66 1009.44 1009.99 1010.34 1011.01 1011.67 1012.02 1012.79 1013.38 1013.58 1014.33 1015.16 1015.86 1016.41 1016.81 1017.34 1017.79 1018.39 1018.81 1019.16 1019.68 1020.15 1020.26 1020.90 1021.34 1021.57
1009.84 1008.84 1007.69 1007.14 1007.43 1008.34 1010.67 1011.44 1011.56 1013.47 1015.18 1015.61 1014.59 1013.26 1012.19 1012.11 1011.88 1011.73 1011.56 1011.40 1011.85 1012.11 1012.64 1013.19 1013.57 1013.90 1014.27 1014.38 1015.03 1015.83 1016.91 1017.58 1017.63 1018.31 1018.41 1019.00 1019.55 1020.04 1020.48 1020.96 1021.25 1021.52 1021.54 1021.69
1009.76 1009.59 1008.20 1007.52 1007.58 1008.24 1008.78 1009.91 1011.98 1013.33 1014.78 1015.07 1014.29 1013.56 1012.56 1012.43 1012.71 1013.07 1013.37 1013.73 1013.91 1013.87 1013.97 1014.47 1014.92 1015.35 1015.87 1016.31 1016.63 1016.87 1017.58 1018.59 1018.78 1018.86 1019.18 1019.40 1020.03 1020.43 1020.67 1021.14 1021.38 1021.85 1021.75 1021.68
1009.77 1009.95 1008.64 1008.37 1008.17 1008.37 1009.36 1010.28 1011.50 1012.23 1013.39 1014.00 1014.15 1013.37 1012.35 1012.67 1013.12 1013.77 1014.30 1014.74 1014.99 1015.08 1015.17 1015.35 1015.72 1016.09 1016.73 1017.49 1017.86 1018.07 1018.82 1020.24 1019.20 1019.23 1019.68 1019.22 1020.32 1020.77 1020.93 1021.25 1021.60 1021.58 1021.71 1021.71
1009.96 1010.53 1010.20 1009.00 1008.23 1008.33 1008.72 1009.53 1010.44 1012.31 1013.56 1014.01 1013.91 1012.99 1012.67 1012.97 1013.72 1014.46 1015.05 1015.41 1015.51 1015.50 1015.58 1015.74 1015.89 1016.20 1016.98 1017.29 1018.51 1019.02 1017.55 1017.61 1018.89 1017.91 1020.06 1020.17 1020.58 1021.19 1021.28 1021.53 1021.73 1021.74 1021.80 1021.71
1009.77 1010.82 1011.17 1009.70 1009.32 1008.90 1009.08 1009.97 1010.83 1011.62 1012.24 1013.46 1013.93 1013.14 1013.22 1013.68 1014.29 1014.86 1015.44 1015.93 1016.27 1016.49 1016.60 1016.76 1016.83 1017.33 1017.15 1017.10 1016.32 1019.21 1019.72 1019.59 1019.51 1019.78 1019.61 1020.80 1021.17 1021.45 1021.36 1021.50 1021.74 1021.81 1022.00 1021.91
1009.98 1011.55 1011.67 1011.09 1010.22 1009.95 1010.03 1010.37 1010.76 1011.57 1012.47 1013.22 1013.02 1012.74 1013.17 1013.62 1014.16 1015.03 1015.74 1016.46 1017.01 1017.43 1017.60 1017.86 1018.07 1018.20 1018.25 1018.68 1019.42 1019.88 1020.33 1020.66 1020.62 1020.65 1021.10 1020.92 1021.37 1021.83 1021.57 1021.41 1021.94 1021.81 1021.79 1021.96
1010.71 1011.68 1011.86 1011.61 1010.94 1010.64 1010.84 1010.95 1011.03 1011.48 1012.03 1012.52 1012.42 1012.76 1012.87 1013.53 1014.07 1015.05 1015.82 1016.76 1017.27 1017.77 1018.25 1018.51 1018.77 1018.79 1018.89 1019.44 1019.92 1020.08 1020.37 1020.35 1020.59 1020.82 1020.81 1020.78 1021.09 1021.33 1021.40 1021.65 1021.88 1021.77 1021.74 1021.84
1011.59 1012.32 1012.53 1012.39 1011.69 1011.47 1011.36 1011.28 1011.31 1011.74 1012.24 1012.44 1012.71 1013.08 1012.89 1013.62 1014.29 1015.32 1016.25 1016.99 1017.56 1017.73 1018.13 1018.56 1018.55 1018.69 1019.22 1019.61 1020.02 1020.35 1020.46 1020.54 1020.48 1020.66 1020.96 1021.33 1021.33 1021.59 1021.57 1021.93 1021.80 1021.69 1021.84 1021.82
1012.45 1013.09 1013.84 1013.67 1012.83 1012.10 1011.84 1011.60 1011.54 1011.55 1011.76 1012.24 1012.69 1012.79 1013.35 1014.07 1014.70 1015.31 1016.22 1017.04 1017.31 1017.44 1017.93 1018.38 1018.74 1018.90 1019.24 1019.76 1020.15 1020.44 1020.48 1020.45 1020.46 1020.64 1020.88 1021.07 1021.31 1021.81 1021.80 1021.88 1021.90 1021.78 1021.77 1021.60
1013.01 1013.99 1014.48 1014.85 1013.92 1013.37 1012.27 1011.73 1011.72 1011.76 1011.74 1012.17 1012.69 1012.63 1013.20 1014.32 1014.99 1015.26 1015.73 1016.65 1017.36 1017.87 1017.98 1018.29 1018.66 1019.08 1019.49 1019.87 1020.16 1020.32 1020.29 1020.43 1020.66 1020.87 1021.02 1020.98 1021.13 1021.15 1021.27 1021.49 1021.40 1021.33 1021.23 1021.24
1013.09 1014.11 1015.22 1015.55 1015.23 1014.23 1012.49 1011.67 1011.79 1011.87 1012.08 1012.09 1012.97 1013.65 1014.45 1015.02 1014.63 1015.42 1015.74 1015.36 1016.13 1016.58 1017.70 1018.20 1018.54 1019.07 1019.51 1019.87 1019.99 1020.24 1020.41 1020.67 1020.69 1020.60 1020.66 1020.79 1020.87 1021.06 1021.33 1021.26 1021.18 1021.11 1021.04 1020.82
1013.83 1014.19 1014.92 1015.95 1015.43 1014.19 1012.16 1011.67 1011.44 1011.60 1012.05 1012.05 1012.98 1013.87 1014.26 1014.61 1014.81 1014.70 1014.25 1014.78 1015.89 1017.33 1016.88 1017.77 1018.37 1018.81 1019.45 1019.91 1019.97 1020.17 1020.38 1020.60 1020.64 1020.59 1020.62 1020.61 1020.71 1020.86 1020.93 1020.76 1020.76 1020.66 1020.45 1020.19
1014.88 1015.39 1015.73 1015.81 1014.97 1013.58 1012.23 1011.72 1011.40 1012.20 1012.75 1012.24 1012.67 1013.54 1014.07 1014.46 1014.19 1014.35 1014.23 1014.68 1015.92 1016.74 1017.10 1017.46 1018.05 1018.63 1019.26 1019.63 1019.73 1020.09 1020.34 1020.32 1020.12 1020.24 1020.32 1020.35 1020.45 1020.48 1020.43 1020.40 1020.28 1020.34 1020.13 1019.83
1015.30 1015.57 1015.93 1015.89 1014.97 1013.53 1012.13 1012.03 1012.01 1012.24 1012.22 1012.32 1012.94 1013.45 1014.02 1014.10 1014.03 1014.48 1014.87 1015.45 1016.20 1016.60 1016.96 1017.26 1018.01 1018.54 1018.93 1019.36 1019.83 1020.16 1020.10 1019.53 1019.81 1020.02 1020.02 1019.96 1019.86 1019.89 1019.88 1019.95 1019.90 1019.82 1019.67 1019.40
1015.30 1014.93 1014.87 1014.96 1014.27 1013.07 1012.31 1012.03 1011.72 1011.84 1012.18 1012.42 1012.73 1013.25 1013.75 1014.36 1014.63 1014.78 1015.22 1015.71 1016.15 1016.46 1016.83 1017.31 1017.85 1018.57 1019.03 1019.45 1019.74 1019.87 1019.19 1019.37 1019.55 1019.77 1019.75 1019.65 1019.61 1019.62 1019.58 1019.70 1019.58 1019.45 1019.16 1018.93
1014.50 1014.39 1014.52 1014.31 1013.57 1012.74 1012.13 1011.94 1011.81 1011.84 1011.76 1012.03 1012.35 1013.04 1013.64 1014.21 1014.72 1015.11 1015.53 1016.05 1016.31 1016.42 1016.68 1017.18 1017.98 1018.66 1018.89 1018.92 1019.23 1019.15 1018.91 1019.14 1019.37 1019.54 1019.55 1019.47 1019.58 1019.38 1019.23 1019.19 1019.06 1018.88 1018.59 1018.28
1014.29 1014.17 1014.05 1013.80 1013.08 1012.44 1011.98 1011.81 1011.65 1011.77 1011.88 1012.16 1012.65 1013.04 1013.66 1014.31 1014.86 1015.33 1015.85 1016.24 1016.39 1016.62 1016.92 1017.44 1018.10 1018.43 1018.65 1018.80 1018.65 1018.49 1018.54 1018.89 1019.11 1019.24 1019.22 1019.18 1019.15 1019.00 1018.70 1018.34 1018.20 1018.03 1017.45 1017.19
1013.42 1012.96 1013.03 1012.67 1011.83 1011.87 1011.85 1011.71 1011.69 1011.88 1012.18 1012.39 1012.60 1013.10 1013.55 1014.02 1014.60 1015.11 1015.62 1015.89 1016.25 1016.60 1017.18 1017.62 1018.00 1018.41 1018.34 1018.36 1018.36 1018.37 1018.40 1018.70 1018.92 1019.06 1018.96 1018.79 1018.64 1018.34 1018.13 1017.88 1017.44 1016.78 1016.41 1015.92
Thickness
5801 5787 5773 5776 5787 5784 5787 5783 5777 5786 5800 5791 5788 5782 5782 5788 5782 5777 5777 5779 5781 5784 5793 5794 5793 5792 5789 5785 5780 5780 5778 5778 5775 5774 5772 5771 5771 5774 5777 5776 5775 5775 5774 5773
5781 5770 5800 5795 5787 5790 5787 5779 5775 5784 5792 5787 5775 5778 5785 5790 5792 5792 5787 5785 5785 5786 5789 5792 5793 5793 5789 5788 5787 5782 5781 5779 5778 5775 5774 5774 5774 5773 5773 5774 5771 5767 5768 5768
5773 5793 5812 5798 5789 5781 5778 5773 5775 5774 5779 5782 5777 5771 5782 5794 5798 5798 5798 5797 5794 5794 5792 5793 5792 5794 5791 5786 5786 5784 5781 5779 5778 5775 5773 5770 5769 5767 5767 5766 5763 5763 5762 5763
5788 5811 5807 5795 5784 5787 5761 5791 5782 5769 5763 5745 5767 5741 5775 5788 5793 5796 5799 5796 5799 5801 5804 5801 5797 5794 5795 5793 5790 5787 5784 5781 5779 5776 5772 5770 5767 5764 5763 5761 5757 5756 5760 5759
5791 5802 5801 5788 5793 5794 5778 5798 5783 5769 5749 5746 5750 5740 5774 5787 5784 5798 5802 5804 5804 5808 5806 5804 5801 5798 5799 5793 5789 5787 5784 5779 5777 5774 5770 5766 5765 5764 5762 5759 5756 5753 5755 5755
5791 5814 5811 5808 5810 5800 5790 5775 5759 5747 5741 5726 5750 5749 5771 5774 5795 5809 5809 5808 5808 5810 5808 5807 5804 5799 5795 5794 5789 5786 5781 5777 5773 5770 5768 5765 5761 5759 5753 5753 5752 5748 5745 5745
5781 5790 5811 5818 5785 5788 5780 5759 5723 5718 5712 5719 5741 5739 5777 5792 5802 5806 5816 5817 5819 5818 5811 5807 5800 5796 5792 5791 5787 5781 5775 5770 5769 5766 5764 5761 5758 5756 5749 5744 5742 5736 5734 5735
5749 5749 5790 5811 5797 5775 5769 5765 5738 5708 5700 5722 5734 5731 5773 5788 5795 5805 5820 5825 5822 5818 5814 5808 5803 5798 5795 5794 5787 5779 5771 5764 5763 5761 5756 5749 5745 5743 5739 5735 5733 5726 5723 5723
5738 5752 5793 5806 5810 5796 5764 5752 5774 5726 5720 5713 5731 5753 5783 5785 5788 5795 5796 5801 5798 5794 5792 5786 5786 5786 5783 5782 5775 5770 5756 5752 5753 5746 5745 5736 5731 5726 5722 5719 5718 5715 5715 5713
5764 5743 5783 5795 5803 5795 5781 5781 5742 5726 5706 5707 5723 5738 5752 5769 5774 5777 5775 5774 5776 5779 5779 5774 5770 5767 5762 5759 5755 5753 5747 5737 5739 5736 5734 5727 5717 5714 5712 5709 5708 5705 5704 5705
5761 5754 5774 5785 5775 5768 5763 5755 5745 5745 5729 5720 5716 5730 5769 5764 5770 5763 5762 5762 5764 5766 5766 5765 5762 5758 5751 5744 5740 5738 5733 5717 5719 5712 5708 5714 5695 5706 5705 5702 5699 5699 5698 5696
5763 5736 5735 5757 5783 5783 5780 5771 5755 5729 5732 5715 5718 5723 5765 5763 5758 5754 5751 5750 5753 5758 5759 5757 5755 5750 5742 5736 5722 5717 5722 5717 5682 5701 5685 5695 5695 5693 5695 5695 5693 5689 5687 5688
5757 5728 5713 5744 5760 5773 5767 5762 5747 5736 5730 5716 5717 5724 5754 5752 5748 5747 5741 5739 5740 5739 5740 5739 5737 5724 5730 5727 5727 5705 5692 5695 5688 5690 5696 5689 5690 5688 5688 5685 5682 5679 5676 5676
5751 5715 5718 5710 5735 5749 5751 5749 5755 5741 5722 5718 5721 5734 5741 5744 5744 5739 5733 5729 5724 5722 5721 5719 5718 5715 5712 5705 5697 5688 5683 5679 5678 5676 5674 5677 5676 5672 5675 5674 5669 5668 5665 5663
5738 5719 5724 5725 5738 5738 5737 5736 5740 5744 5737 5737 5741 5730 5736 5741 5739 5732 5729 5720 5715 5710 5707 5704 5701 5701 5699 5692 5686 5682 5678 5677 5674 5670 5670 5671 5669 5666 5663 5660 5656 5653 5652 5650
5721 5706 5715 5716 5726 5726 5725 5729 5734 5734 5727 5726 5724 5725 5740 5736 5729 5720 5714 5709 5703 5703 5701 5699 5698 5696 5689 5685 5680 5675 5673 5669 5666 5662 5659 5653 5651 5648 5647 5643 5642 5641 5636 5636
5710 5701 5693 5693 5706 5715 5710 5719 5722 5728 5728 5724 5718 5724 5726 5719 5715 5711 5706 5701 5699 5698 5694 5690 5686 5685 5680 5674 5670 5667 5664 5662 5659 5654 5649 5643 5638 5633 5631 5630 5628 5627 5627 5626
5702 5689 5676 5676 5688 5680 5707 5717 5721 5718 5720 5717 5715 5718 5718 5709 5705 5706 5702 5694 5689 5685 5684 5680 5675 5671 5668 5664 5660 5656 5656 5653 5648 5642 5637 5636 5632 5630 5626 5622 5621 5619 5618 5616
5696 5682 5665 5667 5655 5676 5704 5713 5708 5708 5709 5717 5707 5703 5698 5694 5699 5692 5691 5698 5690 5685 5674 5670 5667 5662 5657 5653 5651 5646 5641 5634 5633 5633 5631 5626 5622 5617 5612 5610 5608 5607 5605 5604
5685 5678 5676 5653 5663 5659 5689 5709 5716 5713 5683 5714 5704 5695 5694 5691 5681 5686 5695 5692 5685 5668 5671 5665 5661 5655 5648 5645 5644 5639 5635 5630 5627 5624 5620 5617 5613 5608 5604 5602 5599 5595 5592 5591
5665 5662 5661 5655 5663 5674 5694 5706 5712 5675 5676 5706 5704 5695 5690 5684 5689 5689 5690 5683 5672 5665 5665 5664 5657 5652 5645 5639 5637 5633 5628 5625 5624 5620 5617 5614 5610 5605 5601 5596 5591 5584 5578 5574
5668 5662 5657 5651 5662 5671 5702 5700 5685 5689 5697 5699 5694 5691 5685 5685 5687 5681 5678 5670 5663 5662 5660 5658 5651 5646 5639 5635 5629 5625 5623 5627 5621 5616 5613 5609 5605 5600 5596 5589 5581 5575 5569 5566
5665 5671 5667 5670 5667 5684 5693 5697 5701 5696 5693 5694 5690 5688 5685 5679 5676 5675 5671 5666 5662 5659 5655 5650 5644 5636 5630 5626 5621 5620 5624 5620 5615 5609 5605 5601 5597 5592 5587 5581 5576 5572 5567 5564
5676 5670 5670 5675 5680 5687 5695 5697 5698 5697 5700 5695 5692 5684 5679 5676 5671 5667 5663 5659 5657 5656 5652 5646 5636 5627 5625 5623 5619 5619 5619 5613 5607 5600 5596 5593 5589 5587 5585 5581 5577 5572 5569 5567
5671 5671 5668 5669 5679 5687 5694 5694 5695 5693 5693 5691 5687 5682 5677 5671 5665 5662 5656 5654 5652 5648 5644 5636 5627 5622 5620 5617 5618 5617 5613 5607 5602 5597 5594 5591 5588 5586 5585 5582 5579 5575 5577 5575
5672 5674 5667 5667 5686 5683 5685 5690 5691 5688 5686 5684 5683 5679 5676 5672 5666 5662 5656 5652 5647 5641 5633 5626 5620 5614 5614 5613 5612 5610 5608 5603 5599 5595 5593 5590 5588 5587 5584 5581 5581 5583 5583 5582